This is the latest recevied weather packets stored in our database for station/object W7TRD. If no packets are shown the sender has not sent any weather packets the latest 10 day(s).
| Time | Temp. | Humidity | Pressure | Rain* | Wind** | Luminosity | Snow |
|---|---|---|---|---|---|---|---|
| 1787877600 | 23.89° C | 57% | 1017.9 hPa | 0 mm | - | 44 W/m² | - |
| 1787877296 | 23.89° C | 57% | 1017.9 hPa | 0 mm | - | 44 W/m² | - |
| 1787876995 | 23.89° C | 57% | 1018.2 hPa | 0 mm | - | 45 W/m² | - |
| 1787876691 | 23.89° C | 56% | 1018.1 hPa | 0 mm | - | 48 W/m² | - |
| 1787876386 | 23.33° C | 56% | 1018.1 hPa | 0 mm | - | 50 W/m² | - |
| 1787876085 | 23.33° C | 56% | 1018 hPa | 0 mm | - | 54 W/m² | - |
| 1787875781 | 23.89° C | 56% | 1018 hPa | 0 mm | - | 64 W/m² | - |
| 1787875479 | 23.33° C | 55% | 1017.9 hPa | 0 mm | - | 58 W/m² | - |
| 1787875178 | 23.33° C | 55% | 1018.2 hPa | 0 mm | - | 58 W/m² | - |
| 1787874877 | 23.89° C | 55% | 1018 hPa | 0 mm | - | 65 W/m² | - |
| 1787874572 | 23.89° C | 54% | 1018.2 hPa | 0 mm | - | 60 W/m² | - |
| 1787874267 | 23.89° C | 54% | 1018.3 hPa | 0 mm | - | 60 W/m² | - |
| 1787873966 | 23.89° C | 54% | 1018.2 hPa | 0 mm | - | 57 W/m² | - |
| 1787873661 | 24.44° C | 53% | 1018.1 hPa | 0 mm | - | 59 W/m² | - |
| 1787873361 | 24.44° C | 53% | 1018.4 hPa | 0 mm | - | 66 W/m² | - |
| 1787873060 | 24.44° C | 53% | 1018.4 hPa | 0 mm | - | 62 W/m² | - |
| 1787872755 | 24.44° C | 53% | 1018.6 hPa | 0 mm | - | 65 W/m² | - |
| 1787872451 | 24.44° C | 52% | 1018.5 hPa | 0 mm | - | 84 W/m² | - |
| 1787872146 | 23.89° C | 51% | 1018.5 hPa | 0 mm | - | 130 W/m² | - |
| 1787871845 | 23.89° C | 52% | 1018.6 hPa | 0 mm | - | 114 W/m² | - |
| 1787871540 | 24.44° C | 52% | 1018.6 hPa | 0 mm | - | 94 W/m² | - |
| 1787871236 | 24.44° C | 51% | 1018.7 hPa | 0 mm | - | 129 W/m² | - |
| 1787870931 | 25° C | 51% | 1018.7 hPa | 0 mm | - | 148 W/m² | - |
| 1787870631 | 25° C | 51% | 1018.5 hPa | 0 mm | - | 128 W/m² | - |
| 1787870326 | 24.44° C | 51% | 1018.7 hPa | 0 mm | - | 95 W/m² | - |
* Rain latest hour (hover to see other rain measurements)
** Current wind speed in m/s (hover to see current wind gust speed)